ECHOSTAR 21

Last updated on Wed May 14 2025 00:02:44 GMT+0000 (Coordinated Universal Time)

1 42749U 17032A 25133.52472150 .00000081 00000+0 00000+0 0 9996 2 42749 2.0354 332.0945 0002629 84.6746 13.9299 1.00273432 29097
UTC large
Height (km)
Speed (km/s)
/
Latitude / Longitude
Inclination (degrees)
Orbital Period (minutes)
Azimuth
Elevation
Range (km)
Doppler Factor

Next 0 passes for location: London (51.5072 / 0.1276)

Sorry there are no passes over London.